| time (UTC) | temp F | wind direction | speed MPH | gust MPH | rain 1hr in | rain 24hr in | rain mn in | humidity % | barometer mb |
| 20260504041557 | 41 | 249 | 2.0 | 3.0 | 0.00 | 0.00 | 0.00 | 73 | 1013.7 |
| 20260504040110 | 41 | 229 | 1.0 | 3.0 | 0.00 | 0.00 | 0.00 | 74 | 1013.7 |
| 20260504034607 | 41 | 207 | 1.0 | 3.0 | 0.00 | 0.00 | 0.00 | 74 | 1013.7 |
| 20260504033057 | 41 | 0 | 0.0 | 1.0 | 0.00 | 0.00 | 0.00 | 74 | 1013.8 |
| 20260504031553 | 41 | 0 | 0.0 | 0.0 | 0.00 | 0.00 | 0.00 | 73 | 1013.8 |
| 20260504030056 | 41 | 0 | 0.0 | 1.0 | 0.00 | 0.00 | 0.00 | 74 | 1013.8 |
| 20260504024601 | 41 | 0 | 0.0 | 0.0 | 0.00 | 0.00 | 0.00 | 77 | 1014.0 |
| 20260504023054 | 42 | 0 | 0.0 | 0.0 | 0.00 | 0.00 | 0.00 | 74 | 1014.1 |
| 20260504021556 | 42 | 0 | 0.0 | 0.0 | 0.00 | 0.00 | 0.00 | 74 | 1014.2 |
| 20260504020053 | 43 | 0 | 0.0 | 1.0 | 0.00 | 0.00 | 0.00 | 72 | 1014.1 |
| 20260504014559 | 44 | 0 | 0.0 | 0.0 | 0.00 | 0.00 | 0.00 | 69 | 1014.1 |
| 20260504013119 | 45 | 0 | 0.0 | 1.0 | 0.00 | 0.00 | 0.00 | 68 | 1013.9 |
| 20260504011602 | 45 | 0 | 0.0 | 1.0 | 0.00 | 0.00 | 0.00 | 66 | 1013.9 |
| 20260504010106 | 45 | 0 | 0.0 | 2.0 | 0.00 | 0.00 | 0.00 | 67 | 1013.7 |
| 20260504004607 | 47 | 0 | 0.0 | 5.0 | 0.00 | 0.00 | 0.00 | 63 | 1013.7 |
| 20260504003058 | 49 | 207 | 1.0 | 5.0 | 0.00 | 0.00 | 0.00 | 58 | 1013.7 |
| 20260504001558 | 50 | 242 | 5.0 | 8.0 | 0.00 | 0.00 | 0.00 | 55 | 1013.7 |
| 20260504000125 | 51 | 217 | 4.0 | 9.0 | 0.00 | 0.00 | 0.00 | 53 | 1013.7 |
| 20260503234557 | 53 | 250 | 7.0 | 13.0 | 0.00 | 0.00 | 0.00 | 52 | 1013.7 |
| 20260503233057 | 54 | 240 | 10.0 | 17.0 | 0.00 | 0.00 | 0.00 | 48 | 1013.8 |
| 20260503231556 | 54 | 239 | 10.0 | 19.0 | 0.00 | 0.00 | 0.00 | 47 | 1013.8 |
| 20260503224557 | 55 | 230 | 10.0 | 16.0 | 0.00 | 0.00 | 0.00 | 47 | 1013.9 |
| 20260503223058 | 55 | 270 | 10.0 | 20.0 | 0.00 | 0.00 | 0.00 | 49 | 1013.9 |
| 20260503221556 | 56 | 252 | 12.0 | 16.0 | 0.00 | 0.00 | 0.00 | 46 | 1014.0 |
| 20260503220122 | 56 | 295 | 11.0 | 19.0 | 0.00 | 0.00 | 0.00 | 47 | 1013.9 |
| 20260503214559 | 57 | 229 | 9.0 | 16.0 | 0.00 | 0.00 | 0.00 | 48 | 1013.8 |
| 20260503213103 | 55 | 235 | 11.0 | 22.0 | 0.00 | 0.00 | 0.00 | 46 | 1013.9 |
| 20260503211558 | 57 | 238 | 13.0 | 21.0 | 0.00 | 0.00 | 0.00 | 45 | 1013.9 |
| 20260503210059 | 56 | 243 | 10.0 | 20.0 | 0.00 | 0.00 | 0.00 | 47 | 1014.1 |
| 20260503204603 | 56 | 235 | 10.0 | 17.0 | 0.00 | 0.00 | 0.00 | 48 | 1014.1 |
| 20260503203100 | 56 | 237 | 9.0 | 18.0 | 0.00 | 0.00 | 0.00 | 47 | 1014.2 |
| 20260503201557 | 57 | 260 | 9.0 | 18.0 | 0.00 | 0.00 | 0.00 | 48 | 1014.5 |
| 20260503194559 | 55 | 290 | 7.0 | 13.0 | 0.00 | 0.00 | 0.00 | 49 | 1014.7 |
| 20260503193054 | 57 | 255 | 12.0 | 18.0 | 0.00 | 0.00 | 0.00 | 52 | 1015.0 |
| 20260503191553 | 57 | 284 | 8.0 | 19.0 | 0.00 | 0.00 | 0.00 | 46 | 1015.1 |
| 20260503190059 | 57 | 281 | 11.0 | 19.0 | 0.00 | 0.00 | 0.00 | 50 | 1015.3 |
| 20260503184605 | 54 | 267 | 7.0 | 17.0 | 0.00 | 0.00 | 0.00 | 49 | 1015.5 |
| 20260503183056 | 56 | 276 | 11.0 | 17.0 | 0.00 | 0.00 | 0.00 | 49 | 1015.8 |
| 20260503181601 | 56 | 261 | 13.0 | 19.0 | 0.00 | 0.00 | 0.00 | 49 | 1016.0 |
| 20260503180116 | 55 | 286 | 12.0 | 19.0 | 0.00 | 0.00 | 0.00 | 47 | 1016.0 |
| 20260503174559 | 55 | 321 | 9.0 | 19.0 | 0.00 | 0.00 | 0.00 | 50 | 1016.2 |
| 20260503173106 | 54 | 241 | 11.0 | 21.0 | 0.00 | 0.00 | 0.00 | 49 | 1016.4 |
| 20260503171600 | 54 | 228 | 10.0 | 15.0 | 0.00 | 0.00 | 0.00 | 50 | 1016.5 |
| 20260503160111 | 52 | 272 | 8.0 | 16.0 | 0.00 | 0.00 | 0.00 | 60 | 1017.1 |
| 20260503110104 | 31 | 230 | 2.0 | 5.0 | 0.00 | 0.00 | 0.00 | 92 | 1017.0 |
| 20260503081556 | 32 | 224 | 0.0 | 0.0 | 0.00 | 0.00 | 0.00 | 89 | 1016.0 |
| 20260503071557 | 33 | 250 | 0.0 | 2.0 | 0.00 | 0.00 | 0.00 | 87 | 1015.9 |
| 20260503060114 | 33 | 0 | 0.0 | 1.0 | 0.00 | 0.00 | 0.00 | 85 | 1015.9 |
| 20260503054620 | 33 | 0 | 0.0 | 1.0 | 0.00 | 0.00 | 0.00 | 85 | 1015.9 |
| 20260503053056 | 33 | 0 | 0.0 | 1.0 | 0.00 | 0.00 | 0.00 | 84 | 1015.9 |
| 20260503051604 | 34 | 0 | 0.0 | 0.0 | 0.00 | 0.00 | 0.00 | 83 | 1016.0 |
| 20260503050057 | 34 | 0 | 0.0 | 1.0 | 0.00 | 0.00 | 0.00 | 82 | 1016.2 |
| 20260503044556 | 35 | 0 | 0.0 | 1.0 | 0.00 | 0.00 | 0.00 | 82 | 1016.2 |
| 20260503043102 | 36 | 0 | 0.0 | 2.0 | 0.00 | 0.00 | 0.00 | 82 | 1016.2 |